STARLINK-37409, 68819

Orbit data source: Space-Track

STARLINK-37409, 68819 is a payload satellite owned by SpaceX/Seattle (US) in SSO that was launched on Thu, 23 Apr 2026 UTC via an FALCON 9 launch vehicle from the Air Force Western Test Range (AFWTR). Payload-class satellites include a variety of spacecraft equipped with specific instruments for various scientific and technological missions. These include communications satellites like Starlink; space stations such as the ISS; scientific satellites like the Hubble; Earth observation satellites from companies like Planet Labs, Umbra, and HawkEye 360; GPS; miniature CubeSats for education and research; and military/defense satellites.

Loading next visibility...
Identifier
68819, 2026-089T
Orbit
SSO
Country
Flag of USUS
Related business
Manufacturer
SpaceX/Seattle
Mission
Operational spacecraft
Bus & Motor
STARLINK V2MO, Unknown motor
Mass
575 kg wet, ~530 kg dry
Launch date (UTC)
2026-04-23 (1 week ago)
Launch vehicle
FALCON 9
Launch site
Air Force Western Test Range (AFWTR)
Object type
Payload
Rocket body
Debris
Shape & HBR
Unknown
Radar Cross Section
RCS unknown

Expand to show TLE details & history
Last TLE update: 7 hours ago

TLE from 7 hours ago
0 STARLINK-37409
1 68819U 26089T   26121.25002315 -.02041763  00000-0 -84933-2 0  9991
2 68819  97.2837 326.7060 0001653  76.5347   2.5792 15.88544308  2453
Epoch: 2026-05-01T06:00Z
TLE epoch observation values (Epoch: 2026-05-01T06:00:02.000Z)
Latitude
76.98703°
Longitude
-15.84959°
Altitude
318.33 km
Speed
7.725 km/s
True Right ascension
19h 33m 22s
True Declination
76° 54' 23"
Sunlit
Object was in daylight at epoch
Visualization orbit readout
Latitude
Unknown
Longitude
Unknown
Altitude
Unknown
Speed
Unknown
Apparent Right ascension
Unknown
Apparent Declination
Unknown
Sunlit
N/A
Visualization observer readout
Local Sidereal Time
20:15:24
Azimuth
Unknown
Elevation
Unknown
Doppler factor
Unknown
Orbital elements
Apogee altitude
304.338 km
Perigee altitude
302.129 km
Semi-major axis
6,681.37 km
Eccentricity
0.00017
Inclination
97.2837°
RAAN
326.706°
Arg. of periapsis
76.5347°
True anomaly
2.58005°
Mean anomaly
2.5792°
Eccentric anomaly
2.57963°
Mean motion
3.97416 °/min
Orbital period
90.59 mins
BSTAR
-0.0084933
Loading maneuver chart data...
Computing Atmospheric mass density...
Loading historical data...
Loading historical data...
Loading historical data...
Loading historical data...
Loading historical data...
Loading historical data...
Loading historical data...

Documentation

Showing up to 5 results
|